Location: Malvern Link
(52.1333°N, 2.3000°W)
Time: 19:34:55
(UTC+00:00)

Cosmos 1125 Rocket - Visible Passes

Search period start: 26 January 2021 00:00
Search period end: 05 February 2021 00:00
Orbit: 757 x 780 km, 74.0° (Epoch: 25 January)

Date Brightness Start Highest point End Pass type
(mag) Time Alt. Az. Time Alt. Az. Time Alt. Az.
26 Jan 5.7 03:57:17 20° NNE 03:58:25 21° NE 04:02:25 10° E visible
26 Jan 3.5 05:37:36 21° NNW 05:41:17 88° ENE 05:46:37 10° SSE visible
26 Jan 5.0 07:19:20 10° NW 07:22:37 17° W 07:25:55 10° SW visible
27 Jan 6.1 03:21:33 16° NE 03:21:33 16° NE 03:24:16 10° ENE visible
27 Jan 4.0 05:01:52 30° N 05:04:20 59° ENE 05:09:36 10° SE visible
27 Jan 4.5 06:42:10 12° NW 06:46:04 26° W 06:50:24 10° SSW visible
27 Jan 5.4 19:42:09 10° S 19:43:28 18° S 19:43:28 18° S visible
28 Jan 4.7 04:26:14 36° NNE 04:27:18 40° NE 04:32:19 10° SE visible
28 Jan 4.0 06:06:33 22° NW 06:09:25 40° WSW 06:14:20 10° S visible
28 Jan 4.6 19:05:47 10° SSE 19:08:41 28° SE 19:08:41 28° SE visible
28 Jan 5.7 20:47:32 10° SW 20:49:03 19° WSW 20:49:03 19° WSW visible
29 Jan 5.3 03:50:45 28° ENE 03:50:45 28° ENE 03:54:46 10° ESE visible
29 Jan 3.5 05:31:04 42° NW 05:32:40 62° WSW 05:37:54 10° S visible
29 Jan 5.4 07:12:51 10° W 07:13:38 10° W 07:14:26 10° W visible
29 Jan 4.6 18:29:49 10° SSE 18:33:51 23° E 18:33:51 23° E visible
29 Jan 4.3 20:10:19 10° SW 20:14:13 48° WSW 20:14:13 48° WSW visible
30 Jan 6.1 03:15:23 16° ENE 03:15:23 16° ENE 03:16:56 10° E visible
30 Jan 3.4 04:55:44 86° NNE 04:55:50 87° ENE 05:01:10 10° SSE visible
30 Jan 4.9 06:36:04 16° W 06:37:11 17° W 06:40:30 10° SW visible
30 Jan 5.1 17:54:29 10° SE 17:57:21 15° E 17:58:56 13° ENE visible
30 Jan 3.3 19:33:21 10° SSW 19:38:36 85° ESE 19:39:18 68° NE visible
30 Jan 5.9 21:17:19 10° W 21:19:40 19° WNW 21:19:40 19° WNW visible
31 Jan 4.6 04:20:32 41° ESE 04:20:32 41° ESE 04:24:08 10° SE visible
31 Jan 4.5 06:00:53 26° WSW 06:00:53 26° WSW 06:04:58 10° SSW visible
31 Jan 3.5 18:56:41 10° S 19:01:47 55° ESE 19:04:16 29° NE visible
31 Jan 5.1 20:39:32 10° WSW 20:44:11 31° NW 20:44:36 30° NW visible
01 Feb 5.8 03:45:29 17° ESE 03:45:29 17° ESE 03:46:51 10° SE visible
01 Feb 4.5 05:25:50 30° SSW 05:25:50 30° SSW 05:28:54 10° S visible
01 Feb 4.1 18:20:20 10° SSE 18:25:04 35° ESE 18:29:05 14° NE visible
01 Feb 4.5 20:02:03 10° SW 20:07:04 44° NW 20:09:25 28° N visible
01 Feb 6.4 21:48:20 10° WNW 21:49:46 12° NW 21:49:46 12° NW visible
02 Feb 5.3 04:50:55 20° S 04:50:55 20° S 04:52:27 10° S visible
02 Feb 4.6 17:44:23 10° SSE 17:48:26 23° E 17:52:32 10° NE visible
02 Feb 3.8 19:24:50 10° SW 19:30:03 65° WNW 19:34:06 17° NNE visible
02 Feb 6.0 21:09:52 10° WNW 21:13:14 17° NW 21:14:26 16° NNW visible
03 Feb 3.4 18:47:53 10° SSW 18:53:08 84° ESE 18:58:28 10° NNE visible
03 Feb 5.7 20:31:48 10° W 20:35:56 23° NW 20:38:57 14° N visible
04 Feb 3.6 18:11:14 10° S 18:16:20 55° ESE 18:21:30 10° NNE visible
04 Feb 5.2 19:54:03 10° WSW 19:58:43 31° NW 20:03:21 10° NNE visible
